P/2002 JN16 ( LINEAR )

Japanese version
Home page
Total 6,336 html files since Dec. 4, 1995
Updated on August 23, 2002

---------------------------------------------------------------------

* Profile

Discovery Date May 9, 2002
Magnitude 18.0 mag
Discoverer Lincoln Laboratory Near-Earth Asteroid Research project

* Orbital Elements

Epoch 2002 July 25.0 TT = JDT 2452480.5
T 2002 July 27.59418 TT                                 MPC
q   1.7906024            (2000.0)            P               Q
n   0.15151841     Peri.   39.62678     -0.01484035     +0.98830705
a   3.4846495      Node   230.07706     -0.96024489     -0.05639945
e   0.4861456      Incl.   11.41279     -0.27876426     +0.14166256
P   6.50

* Finding Charts

* Magnitudes Graph

        m1 = 14.5 + 5 log d + 10.0 log r

---------------------------------------------------------------------

The orbital elements are published on M.P.E.C. 2002-P65.
The charts are made with StellaNavigator Ver.2.0 for Windows (AstroArts / ASCII).
The magnitudes graphs are made with Comet for Windows.

---------------------------------------------------------------------

Copyright(C) 1995-2008 Seiichi Yoshida (comet@aerith.net). All rights reserved.